Location: Sternwarte auf dem Internationalen Platz Vogelsang IP
(50.5721°N, 6.4398°E)
Time: 03:19:31
(UTC+01:00)

Transit 2A Rocket - Pass Details

Date: 18 December 2025
Orbit: 581 x 903 km, 66.7° (Epoch: 14 January)

Event Time Altitude Azimuth Distance (km) Brightness Sun altitude
Rises 12:59:39 0° 311° (NW) 3,516 8.1 15.8°
Reaches altitude 10° 13:02:59 10° 329° (NNW) 2,589 7.3 15.7°
Maximum altitude 13:07:10 19° 13° (NNE) 2,026 6.7 15.6°
Drops below altitude 10° 13:11:18 10° 57° (ENE) 2,564 7.4 15.5°
Sets 13:14:35 0° 75° (ENE) 3,471 8.1 15.4°
